SCP
0 0 0 0 0 0 0 0 0 0 0 0 0 0 1 1 1 2 2 3 4 5 6 6 6 5 6 6 6 5 5 5 4 4 3 3 2 2 2 2 2 2 2 2
0 0 0 0 0 0 0 0 0 0 0 0 0 0 1 1 1 2 2 3 4 5 6 6 6 5 5 6 6 5 5 5 5 4 3 3 2 2 2 2 2 2 3 2
0 0 0 0 0 0 0 0 0 0 0 0 0 0 1 1 1 2 2 3 5 5 6 6 6 5 4 5 5 5 5 5 4 4 4 3 3 2 2 2 2 3 3 3
0 0 0 0 0 0 0 0 0 0 0 0 0 1 2 2 1 2 2 3 5 5 5 5 5 4 4 4 4 4 4 4 4 4 4 4 3 2 2 2 2 3 2 2
0 0 0 0 0 0 0 0 0 0 0 0 0 1 2 2 2 2 2 3 4 5 5 5 5 4 4 3 3 4 4 4 5 5 5 4 4 3 3 2 2 2 2 2
0 0 0 0 0 0 0 0 0 0 0 0 0 0 1 1 2 2 2 3 4 5 5 5 5 4 4 3 3 3 4 4 5 5 5 5 4 3 3 2 2 2 2 2
0 0 0 0 0 0 0 0 0 0 0 0 0 0 1 1 1 2 3 4 5 6 6 6 6 5 4 4 3 3 3 4 4 4 4 4 4 3 3 2 2 2 2 2
0 0 0 0 0 0 0 0 0 0 0 0 0 1 1 1 2 2 3 4 6 6 6 6 6 5 4 4 3 3 3 3 3 3 3 3 3 3 2 2 2 2 2 2
0 0 0 0 0 0 0 0 0 0 0 0 1 1 1 1 2 3 4 5 7 8 6 5 5 4 4 3 3 3 3 2 2 2 2 2 2 2 2 2 2 2 2 2
0 0 0 0 0 0 0 0 0 0 0 0 0 1 1 2 2 3 4 6 9 10 7 4 3 3 4 3 3 3 2 2 2 2 2 2 2 2 2 2 2 3 3 3
0 0 0 0 0 0 0 0 0 0 0 0 0 1 1 2 2 3 3 6 9 9 6 4 3 3 3 3 4 3 3 2 2 2 2 2 2 2 2 2 2 3 3 3
0 0 0 0 0 0 0 0 0 0 0 0 0 1 1 2 2 3 4 5 6 6 4 3 3 3 3 3 4 4 3 2 2 2 2 2 2 2 2 2 2 2 3 2
0 0 0 0 0 0 0 0 0 0 0 0 1 1 2 2 2 3 4 4 4 4 3 3 4 4 4 3 4 3 2 2 2 2 2 2 2 3 3 2 2 2 2 2
0 0 0 0 0 0 0 0 0 0 0 0 1 2 2 3 3 4 4 4 4 4 4 4 5 4 4 4 4 3 2 2 2 2 2 3 3 3 3 3 3 3 3 3
0 0 0 0 0 0 0 0 0 0 0 1 2 4 5 5 5 5 5 4 4 4 5 6 6 5 5 5 4 3 2 2 2 2 3 3 3 3 3 3 4 4 4 3
0 0 0 0 0 0 0 0 0 0 0 1 3 5 7 7 6 6 6 5 5 5 5 6 7 6 5 4 4 3 3 3 3 3 3 3 3 3 3 4 4 4 4 4
1 1 1 0 0 0 0 0 0 0 1 2 4 6 8 9 8 8 8 7 6 5 5 6 7 7 6 4 4 3 4 4 4 3 3 3 3 3 3 4 4 5 5 5
1 1 1 0 0 0 0 0 0 1 1 2 5 8 11 12 11 10 9 8 6 5 6 7 8 7 6 5 4 3 3 3 3 3 3 3 3 3 3 4 4 5 5 5
1 1 1 1 0 0 0 1 1 2 3 4 7 11 12 11 10 9 8 8 7 6 7 8 8 8 7 5 4 3 3 3 4 3 3 3 3 3 4 4 5 5 5 5
1 1 1 1 0 1 1 2 2 3 4 5 8 10 9 8 7 6 6 7 7 8 8 8 9 8 7 6 5 5 5 5 4 4 4 4 4 4 5 5 5 6 5 5
1 1 1 1 1 1 1 2 3 4 5 5 6 7 6 6 6 6 6 6 7 7 7 7 7 7 6 6 6 7 6 6 5 4 4 5 6 6 6 7 7 7 6 5
1 1 1 1 1 2 2 3 4 5 6 6 6 6 6 6 7 6 6 5 5 6 6 6 6 6 5 5 5 5 5 5 5 5 5 6 7 6 7 8 8 7 6 5
2 2 3 3 3 3 3 4 4 5 6 7 7 7 7 8 9 7 5 5 5 5 6 6 6 6 5 4 4 3 3 4 4 5 5 6 6 6 7 7 7 6 5 5
3 4 5 5 4 4 4 4 4 5 6 6 5 6 7 8 9 7 6 5 4 5 6 6 6 6 4 4 4 4 4 4 4 5 6 6 7 7 6 5 5 5 5 4
3 4 5 5 4 4 5 5 5 5 5 5 5 6 8 9 8 7 6 5 5 5 5 6 6 5 4 3 3 3 4 4 4 5 6 7 7 6 4 3 3 3 3 3
2 3 3 4 4 5 6 6 6 5 4 4 5 6 8 9 9 7 6 5 5 4 5 5 5 4 3 2 2 3 4 4 4 5 5 6 6 4 3 2 1 1 1 1
Wind_Speed
13 13 13 14 15 16 15 13 11 4 3 2 8 8 5 6 6 6 8 9 9 11 12 11 11 11 11 10 10 9 9 9 8 6 6 5 4 4 3 4 5 6 5 5
14 17 18 16 14 12 13 13 11 7 3 4 9 10 8 5 4 5 7 9 10 11 13 11 10 10 10 10 10 10 9 10 9 6 5 4 4 4 4 3 5 6 5 5
20 14 14 17 15 12 12 12 12 10 5 7 10 12 9 6 5 6 7 8 10 12 14 13 12 11 10 10 10 9 9 9 9 8 5 4 4 3 4 4 4 5 6 5
18 20 11 11 14 13 12 12 11 11 10 9 11 9 6 7 7 7 8 8 10 11 14 14 12 11 11 10 10 9 9 8 8 8 7 8 6 5 5 5 4 5 5 6
16 17 16 14 13 12 13 10 9 10 11 12 13 11 4 7 7 8 9 8 9 10 13 14 13 11 10 10 9 8 8 8 8 8 7 7 6 5 3 4 5 6 5 6
18 16 15 15 13 12 11 10 8 10 11 14 14 12 5 5 7 7 7 8 9 10 11 12 12 11 9 9 9 8 8 8 8 8 8 7 7 6 6 6 6 5 4 5
19 19 14 12 14 14 12 10 8 9 10 11 9 9 3 7 6 6 8 9 10 11 11 12 12 11 10 10 9 9 9 8 8 8 8 7 7 6 7 6 6 6 5 5
18 17 17 14 15 13 14 15 12 9 7 5 6 6 3 7 8 7 9 9 10 11 11 11 11 10 10 9 9 9 9 8 8 8 7 6 6 5 5 6 5 6 5 5
14 17 18 17 16 17 16 16 17 16 15 9 6 5 5 6 9 9 9 10 10 11 12 11 11 10 9 9 9 9 9 7 7 7 6 6 6 6 5 5 5 4 4 4
18 13 14 18 15 17 18 15 11 12 11 12 7 8 7 9 8 10 10 10 11 11 12 12 11 10 9 8 8 8 8 7 6 6 6 6 6 6 5 5 5 4 4 4
21 15 11 14 16 16 16 16 13 9 11 11 8 1 2 8 8 8 10 11 12 11 11 11 10 9 9 8 8 8 8 7 6 6 6 5 5 6 6 5 5 4 4 4
17 13 12 13 15 15 16 17 15 10 10 10 9 2 6 8 7 8 9 11 11 11 11 11 11 9 9 8 8 7 7 7 6 6 6 5 5 5 5 5 5 5 5 4
12 11 12 13 13 15 15 16 16 14 11 10 10 3 7 8 7 9 10 11 11 11 11 10 10 9 8 7 7 7 7 7 7 6 6 5 5 5 5 5 5 5 5 4
7 10 13 14 11 14 15 16 16 15 11 11 10 6 7 7 7 10 11 11 12 11 11 10 9 8 7 6 6 6 5 6 6 6 6 6 5 4 4 4 5 4 4 4
8 12 15 16 13 12 15 17 17 16 14 11 7 6 6 6 7 8 10 11 12 12 11 10 9 8 7 6 6 5 5 5 4 4 5 5 4 4 4 3 4 4 4 4
9 10 13 16 16 14 12 15 16 16 14 11 7 4 4 4 8 8 9 11 11 11 10 10 9 8 6 6 5 5 4 4 4 4 4 4 4 4 4 4 4 4 4 3
9 9 12 13 15 15 15 12 13 13 13 11 9 6 9 9 8 8 7 8 10 10 9 8 8 7 5 5 4 4 4 4 4 3 3 3 4 4 4 4 4 3 3 4
7 7 8 12 13 16 11 10 11 10 8 7 7 8 9 11 10 8 6 8 9 9 8 7 6 6 5 4 4 4 4 4 3 3 3 3 4 4 4 3 4 3 3 3
8 7 9 11 13 12 9 8 9 8 6 4 7 11 13 14 12 8 7 8 8 9 8 6 6 6 5 4 3 3 3 3 3 3 3 3 3 4 4 4 4 4 5 4
11 8 9 10 11 10 6 4 4 5 6 5 8 12 13 11 6 6 7 8 10 9 8 7 6 6 5 4 4 4 3 3 3 2 3 3 3 4 4 4 5 5 5 5
15 13 14 14 11 6 3 4 3 5 3 7 9 9 8 5 7 11 10 10 10 9 8 8 7 6 5 5 5 5 5 4 4 4 4 4 4 4 4 4 5 5 6 7
13 14 15 14 13 5 2 1 1 4 6 9 10 11 11 12 13 13 11 10 9 8 8 8 7 6 6 6 5 6 5 5 5 6 6 6 6 5 5 6 5 5 6 7
6 3 3 3 2 6 7 6 6 6 6 7 9 12 12 12 12 12 11 9 9 8 8 7 7 7 6 6 6 6 5 5 6 8 8 7 8 7 6 6 6 5 5 5
2 1 2 4 7 8 7 5 7 7 7 8 9 10 12 11 12 12 10 9 9 8 7 7 7 7 7 7 6 6 5 6 7 8 7 7 8 9 9 7 6 6 5 5
3 3 2 3 3 5 6 5 7 7 7 8 8 11 12 12 12 11 10 9 8 7 7 7 7 7 7 6 6 6 6 6 8 8 8 8 9 10 11 11 10 9 8 6
3 2 2 3 5 4 5 4 6 7 8 8 11 12 12 12 12 12 10 9 8 8 8 8 8 8 7 7 7 6 5 6 8 8 7 7 8 8 9 10 12 18 15 18
Wind_Direction
212 227 235 237 234 252 282 301 305 300 124 236 268 270 234 199 197 166 161 159 159 158 148 145 154 157 159 159 162 169 170 162 159 163 173 180 180 171 166 169 166 167 178 179
220 227 238 250 254 255 267 278 278 269 200 239 274 271 252 201 185 167 168 159 160 151 143 150 156 159 163 166 168 172 173 169 171 171 171 180 178 176 174 174 169 178 177 181
228 233 223 235 248 251 255 261 271 283 264 230 255 259 240 192 178 166 176 165 162 157 156 157 162 165 168 170 173 176 174 172 174 169 171 180 168 170 171 175 178 183 182 191
232 243 242 237 239 239 247 250 263 277 279 270 259 260 207 176 179 184 185 173 165 162 156 158 163 169 170 170 173 169 168 170 175 173 181 180 182 186 184 176 178 179 189 188
229 230 235 234 242 238 246 262 259 263 267 271 272 268 207 171 180 193 181 166 154 154 153 157 162 165 164 167 166 165 165 171 175 182 188 185 191 189 181 176 177 180 189 195
242 234 227 234 235 239 242 250 256 259 262 255 255 262 233 175 180 181 150 142 140 143 147 150 152 153 159 163 162 163 165 172 176 183 188 190 195 191 187 190 185 188 187 193
234 241 226 223 234 220 222 229 231 230 230 243 245 249 215 156 158 156 144 143 141 144 142 145 151 155 161 164 162 162 165 173 179 185 191 194 198 192 197 197 193 194 188 188
220 226 222 214 229 228 211 226 237 247 243 246 240 233 200 137 124 125 132 134 137 138 138 143 148 152 159 161 159 160 166 174 180 184 189 192 193 196 201 204 201 198 192 183
228 222 212 209 213 236 219 221 244 261 275 270 208 184 152 149 135 135 138 141 141 135 137 142 147 151 155 155 155 158 162 166 173 178 182 190 197 200 199 196 205 198 189 185
253 255 216 197 203 223 241 225 231 251 271 278 247 201 181 165 154 152 153 149 142 139 142 140 143 145 145 147 147 153 157 162 168 175 185 186 191 190 193 198 200 193 189 180
238 254 238 200 199 215 221 238 242 249 254 263 269 286 109 143 166 169 155 146 142 142 139 136 137 137 140 140 144 149 152 159 166 172 179 179 183 186 190 193 190 179 169 167
221 237 246 224 204 215 222 225 233 239 251 265 268 218 135 155 176 160 141 134 136 134 130 132 134 134 137 140 144 149 154 161 165 165 168 175 180 178 182 185 178 166 165 171
213 231 237 232 211 205 225 223 229 234 239 249 258 193 150 169 166 141 134 130 132 133 130 129 129 132 136 139 142 147 158 160 163 164 165 167 177 178 181 176 171 167 164 167
229 230 238 233 218 202 213 225 226 230 233 238 242 181 169 171 151 139 133 135 138 135 132 132 130 131 132 135 137 143 151 153 159 165 167 169 174 173 173 170 169 165 162 165
237 229 239 256 264 241 214 218 223 229 237 240 234 185 177 160 142 136 135 138 138 138 137 135 137 132 136 137 139 146 147 150 155 163 166 167 167 163 162 160 155 155 159 168
225 245 239 244 252 254 241 220 219 223 228 231 226 177 132 135 135 138 142 144 141 141 138 138 134 133 136 139 146 146 150 147 151 164 167 159 163 161 159 153 147 151 158 160
211 229 245 244 238 243 241 234 226 222 222 222 218 173 156 149 133 137 142 143 136 134 132 130 131 133 138 147 147 146 146 143 144 150 151 146 153 161 160 157 148 151 156 162
230 225 238 247 244 239 237 241 235 226 219 198 157 149 142 122 107 97 108 123 124 126 127 126 129 134 138 136 139 138 148 149 151 151 154 154 155 158 150 145 142 141 126 122
224 227 238 241 241 241 231 230 232 213 201 167 143 123 120 118 107 88 83 97 108 111 111 110 109 105 102 103 113 128 133 131 132 141 147 148 150 149 146 145 140 134 127 118
210 216 238 243 245 240 233 245 278 205 185 137 122 126 133 141 143 132 117 103 96 98 100 97 93 90 86 80 84 90 104 107 108 117 124 127 130 133 137 135 129 122 120 113
204 206 224 239 244 235 305 333 305 228 164 117 118 122 129 121 103 123 121 104 99 98 100 98 91 87 80 75 80 80 69 67 73 75 80 90 99 109 113 114 115 113 110 106
205 208 215 230 238 226 26 4 27 72 66 90 95 98 97 99 109 116 113 109 106 102 100 101 95 86 78 77 80 80 70 59 66 75 78 76 74 82 93 97 100 106 113 110
221 224 229 229 179 90 66 82 91 91 96 93 97 103 110 118 119 115 113 108 102 95 91 93 96 92 82 76 79 82 75 74 78 78 78 80 79 73 74 82 88 100 105 107
215 119 125 94 101 103 95 86 92 92 96 102 107 111 119 121 117 112 108 101 93 88 88 89 91 89 80 73 75 81 86 87 87 87 85 85 83 76 65 62 62 65 67 90
330 288 166 128 116 88 89 89 93 98 101 103 103 110 115 116 114 111 106 100 96 93 88 86 87 89 86 82 80 80 88 100 99 96 91 87 83 82 72 62 51 57 49 56
291 313 275 154 135 128 115 93 109 104 99 102 107 106 109 111 111 110 107 103 99 95 91 88 84 85 84 84 82 81 88 101 107 102 97 95 95 94 94 91 75 56 61 61